sat.trackr.live / text

‹ back to catalog

GAOFEN-9 03

NORAD 45794 · 2020-039A

PAYLOAD ACTIVE UNKNOWN

§ Identity

Operator
Country
PRC
Launch date
2020-06-17
Launch site
JSC
Launch vehicle
Mass (kg)
RCS (m²)

External: N2YO · Heavens-Above · Gunter

§ Orbital elements

Epoch: 2026-09-20T04:28:33.384864Z

Period
93.88 min
Inclination
97.5517°
Eccentricity
0.0012456
Mean motion
15.33854278 rev/d
Perigee alt
455.8 km
Apogee alt
472.8 km
Semi-major
6,842.5 km
B*
1.7610e-4
RAAN
38.9860°
Arg perigee
102.8319°
Mean anomaly
257.4316°
Rev number
34,831

§ Raw data

GAOFEN-9 031 45794U 20039A   26263.18649751  .00005696  00000+0  17610-3 0  99962 45794  97.5517  38.9860 0012456 102.8319 257.4316 15.33854278348314

JSON: /api/v1/satellites/45794 · /tle

For live sub-satellite position, see the globe view (requires WebGL).

§ Visibility from observer

Set your observer location to see the next 7 days of passes ≥ 10°. The values pass through the URL so the page stays shareable.

No JS? Fill the form by hand. The geolocation button needs JavaScript.